Puy-St-Vincent, France 16 day weather forecast

Slopes altitude range 1250 m - 2700m

Number of lifts: 12 Pistes: 75km

In some cases the lift and piste totals shown are for the ski domain (e.g. Three Valleys) rather than individual resort (e.g. Courchevel)

Overview

The 16 day weather forecast is fully updated 4 times every day.

    • Sun 16 JUN 2019
    • Sun 16
    • 4C 14C
    • Mon 17 JUN 2019
    • Mon 17
    • 9C 15C
    • Tue 18 JUN 2019
    • Tue 18
    • 9C 15C
    • Wed 19 JUN 2019
    • Wed 19
    • 10C 15C
    • Thu 20 JUN 2019
    • Thu 20
    • 10C 14C
    • Fri 21 JUN 2019
    • Fri 21
    • 9C 13C
    • Sat 22 JUN 2019
    • Sat 22
    • 8C 14C
    • Sun 23 JUN 2019
    • Sun 23
    • 8C 14C
    • Mon 24 JUN 2019
    • Mon 24
    • 13C 21C
    • Tue 25 JUN 2019
    • Tue 25
    • 15C 24C
    • Wed 26 JUN 2019
    • Wed 26
    • 8C 13C
    • Thu 27 JUN 2019
    • Thu 27
    • 10C 14C
    • Fri 28 JUN 2019
    • Fri 28
    • 13C 19C
    • Sat 29 JUN 2019
    • Sat 29
    • 12C 18C
    • Sun 30 JUN 2019
    • Sun 30
    • 14C 19C
    • Mon 01 JUL 2019
    • Mon 01
    • 13C 16C

Date:

Time Type 0°C level Temp Chill Snow Cloud Speed Gust Dir Press
12:00 3683m 14°C 14_9 0cm 23% 9mph 6mph 1017mB
15:00 3741m 14°C 14_11 0cm 6% 11mph 8mph 1016mB
18:00 3842m 14°C 14_10 0cm 5% 10mph 10mph 1016mB
21:00 3991m 5°C 5_4 0cm 9% 4mph 5mph 1018mB
0:00 3857m 4°C 4_2 0cm 5% 2mph 3mph 1018mB
3:00 3852m 4°C 4_2 0cm 0% 2mph 3mph 1017mB
6:00 3763m 3°C 3_4 0cm 0% 4mph 4mph 1018mB
9:00 3508m 9°C 9_6 0cm 0% 6mph 6mph 1017mB
12:00 3695m 15°C 15_3 0cm 44% 3mph 4mph 1017mB
15:00 3810m 14°C 14_2 0cm 98% 2mph 2mph 1015mB
18:00 3727m 14°C 14_1 0cm 99% 1mph 2mph 1016mB
21:00 3824m 7°C 7_1 0cm 100% 1mph 1mph 1017mB
0:00 3746m 5°C 5_2 0cm 69% 2mph 3mph 1017mB
3:00 3698m 4°C 4_1 0cm 10% 1mph 2mph 1017mB
6:00 3720m 4°C 4_2 0cm 10% 2mph 2mph 1017mB
9:00 3711m 9°C 9_5 0cm 98% 5mph 5mph 1016mB
12:00 3673m 15°C 15_3 0cm 97% 3mph 5mph 1015mB
15:00 3705m 15°C 15_4 0cm 85% 4mph 5mph 1014mB
18:00 3652m 15°C 15_4 0cm 84% 4mph 5mph 1014mB
21:00 3690m 7°C 7_3 0cm 0% 3mph 4mph 1016mB
0:00 3838m 6°C 6_2 0cm 0% 2mph 3mph 1016mB
3:00 3771m 5°C 5_4 0cm 76% 4mph 4mph 1015mB
6:00 3723m 5°C 5_5 0cm 59% 5mph 5mph 1014mB
9:00 3643m 10°C 10_6 0cm 19% 6mph 7mph 1013mB
12:00 3727m 15°C 15_7 0cm 41% 7mph 10mph 1013mB
15:00 3766m 16°C 16_6 0cm 89% 6mph 8mph 1011mB
18:00 3705m 16°C 16_6 0cm 84% 6mph 7mph 1012mB
21:00 3729m 8°C 8_3 0cm 100% 3mph 4mph 1014mB
0:00 3825m 6°C 6_2 0cm 89% 2mph 3mph 1014mB
3:00 3738m 5°C 5_3 0cm 89% 3mph 4mph 1013mB
6:00 3605m 5°C 5_5 0cm 94% 5mph 6mph 1013mB
9:00 3540m 10°C 10_6 0cm 0% 6mph 7mph 1013mB
12:00 3586m 14°C 14_6 0cm 45% 6mph 8mph 1013mB
15:00 3596m 14°C 14_5 0cm 90% 5mph 7mph 1012mB
18:00 3569m 14°C 14_5 0cm 77% 5mph 6mph 1013mB
21:00 3516m 6°C 6_4 0cm 0% 4mph 5mph 1015mB
0:00 3504m 5°C 5_2 0cm 0% 2mph 3mph 1015mB
3:00 3489m 4°C 4_2 0cm 28% 2mph 3mph 1015mB
6:00 3461m 4°C 4_2 0cm 15% 2mph 2mph 1015mB
9:00 3485m 9°C 9_6 0cm 67% 6mph 6mph 1015mB
12:00 3582m 13°C 13_5 0cm 83% 5mph 6mph 1015mB
15:00 3655m 13°C 13_4 0cm 98% 4mph 5mph 1014mB
18:00 3593m 13°C 13_3 0cm 99% 3mph 4mph 1014mB
21:00 3524m 7°C 7_4 0cm 95% 4mph 4mph 1016mB
0:00 3507m 6°C 6_1 0cm 86% 1mph 1mph 1016mB
3:00 3455m 5°C 5_1 0cm 61% 1mph 2mph 1016mB
6:00 3392m 4°C 4_1 0cm 43% 1mph 1mph 1016mB
9:00 3384m 8°C 8_3 0cm 0% 3mph 4mph 1015mB
12:00 3547m 14°C 14_5 0cm 23% 5mph 7mph 1015mB
15:00 3562m 13°C 13_5 0cm 61% 5mph 6mph 1013mB
18:00 3506m 13°C 13_6 0cm 61% 6mph 6mph 1014mB
21:00 3431m 7°C 7_6 0cm 88% 6mph 6mph 1016mB
0:00 3413m 6°C 6_6 0cm 93% 6mph 6mph 1016mB
3:00 3377m 5°C 5_5 0cm 100% 5mph 6mph 1015mB
6:00 3521m 4°C 4_5 0cm 69% 5mph 6mph 1016mB
9:00 3404m 8°C 8_6 0cm 42% 6mph 6mph 1016mB
12:00 3610m 14°C 14_6 0cm 67% 6mph 7mph 1015mB
15:00 3685m 15°C 15_10 0cm 91% 10mph 9mph 1015mB
18:00 3758m 15°C 15_9 0cm 53% 9mph 10mph 1015mB
21:00 4077m 9°C 9_7 0cm 57% 7mph 7mph 1017mB
0:00 4370m 8°C 8_7 0cm 78% 7mph 7mph 1018mB
3:00 4388m 8°C 8_6 0cm 78% 6mph 6mph 1017mB
6:00 4424m 7°C 7_4 0cm 65% 4mph 5mph 1018mB
9:00 4741m 13°C 13_3 0cm 91% 3mph 3mph 1018mB
12:00 4751m 21°C 21_5 0cm 95% 5mph 5mph 1017mB
15:00 4855m 21°C 21_5 0cm 6% 5mph 5mph 1016mB
18:00 4850m 21°C 21_3 0cm 3% 3mph 4mph 1017mB
21:00 4779m 11°C 11_4 0cm 0% 4mph 5mph 1019mB
0:00 4646m 11°C 11_5 0cm 0% 5mph 6mph 1019mB
3:00 4658m 10°C 10_5 0cm 0% 5mph 6mph 1018mB
6:00 4696m 10°C 10_3 0cm 0% 3mph 5mph 1018mB
9:00 4704m 15°C 15_3 0cm 0% 3mph 5mph 1017mB
12:00 4336m 24°C 24_4 0cm 0% 4mph 9mph 1016mB
15:00 4373m 24°C 24_4 0cm 0% 4mph 11mph 1015mB
18:00 4434m 24°C 24_3 0cm 0% 3mph 4mph 1015mB
21:00 4496m 13°C 13_4 0cm 48% 4mph 5mph 1017mB
0:00 4357m 11°C 11_6 0cm 68% 6mph 7mph 1016mB
3:00 4155m 10°C 10_6 0cm 33% 6mph 6mph 1015mB
6:00 4065m 9°C 9_6 0cm 42% 6mph 7mph 1015mB
Afternoon 0.0208333mm 0.125 3249m 13°C 13_8 0cm 17% 8mph 11mph 1014mB
Morning 0mm 0 3273m 2°C 2_11 0cm 8% 11mph 13mph 1014mB
Afternoon 0.0208333mm 0 3251m 14°C 14_7 0cm 0% 7mph 8mph 1014mB
Morning 0mm 0 3700m 1°C 1_6 0cm 0% 6mph 8mph 1018mB
Afternoon 0mm 0 3990m 19°C 19_2 0cm 0% 2mph 3mph 1016mB
Morning 0mm 0 4024m 5°C 5_3 0cm 0% 3mph 4mph 1016mB
Afternoon 0mm 0 4012m 18°C 18_4 0cm 8% 4mph 4mph 1012mB
Morning 0mm 0 4215m 6°C 6_4 0cm 45% 4mph 5mph 1011mB
Afternoon 0.0208333mm 0.0625 4254m 19°C 19_4 0cm 37% 4mph 4mph 1008mB
Morning 0.0208333mm 0.0625 4018m 6°C 6_2 0cm 0% 2mph 3mph 1009mB
Afternoon 0.104167mm 0.3125 3756m 16°C 16_2 0cm 61% 2mph 4mph 1009mB
Morning 0mm 0 3854m 6°C 6_5 0cm 75% 5mph 7mph 1011mB

16 day outlook at a glance

Forecast issued: 6/16/2019 2:34:11 PM

Chat

Your comments and questions. In a resort? Let us know what it's like!


Characters left 250

For terms and conditions see Readers Comments on the Cookie and privacy policy page.